User: anonymous
Location: Unspecified
(0.0000°N, 0.0000°E)
Time: 20:27:16
(UTC+02:00)
Language:

deb Ariane - Orbit

View from above orbital plane
View from above orbital plane
View from above satellite
View from above satellite

Ground track
Ground track

The orbit data is extracted from the following two-line orbital elements,

1 25668U 92060E   14208.97419646  .00222917  55748-6  16848-2 0  5190
2 25668 007.4240 177.0385 5603958 337.6318 016.5115 04.78174535248854
Epoch (UTC): 27 July 2014 23:22:50
Eccentricity: 0.5603958
inclination: 7.4240°
perigee height: 164 km
apogee height: 16844 km
right ascension of ascending node: 177.0385°
argument of perigee: 337.6318°
revolutions per day: 4.78174535
mean anomaly at epoch: 16.5115°
orbit number at epoch: 24885

The dashed part of the orbit path shows where the satellite is in the earth's shadow,  

DLR